| time (UTC) | temp F | wind direction | speed MPH | gust MPH | rain 1hr in | rain 24hr in | rain mn in | humidity % | barometer mb |
| 20260509034558 | 80 | 156 | 6.0 | 12.0 | 0.00 | 0.05 | 0.04 | 99 | 1008.5 |
| 20260509033058 | 80 | 155 | 5.0 | 12.0 | 0.00 | 0.05 | 0.04 | 99 | 1008.5 |
| 20260509031557 | 80 | 134 | 6.0 | 9.0 | 0.00 | 0.05 | 0.04 | 100 | 1008.4 |
| 20260509030057 | 80 | 142 | 7.0 | 11.0 | 0.00 | 0.05 | 0.04 | 99 | 1008.5 |
| 20260509024559 | 80 | 131 | 7.0 | 11.0 | 0.00 | 0.05 | 0.04 | 99 | 1008.4 |
| 20260509023109 | 80 | 150 | 7.0 | 12.0 | 0.00 | 0.05 | 0.04 | 100 | 1008.2 |
| 20260509021556 | 80 | 100 | 7.0 | 11.0 | 0.00 | 0.05 | 0.04 | 100 | 1008.0 |
| 20260509020059 | 80 | 141 | 8.0 | 13.0 | 0.00 | 0.05 | 0.04 | 100 | 1007.9 |
| 20260509014554 | 80 | 124 | 6.0 | 10.0 | 0.00 | 0.05 | 0.04 | 100 | 1007.6 |
| 20260509013056 | 80 | 135 | 4.0 | 8.0 | 0.00 | 0.05 | 0.04 | 100 | 1007.5 |
| 20260509011558 | 80 | 111 | 6.0 | 12.0 | 0.00 | 0.05 | 0.04 | 99 | 1007.4 |
| 20260509010055 | 80 | 128 | 5.0 | 8.0 | 0.00 | 0.05 | 0.04 | 99 | 1007.2 |
| 20260509004552 | 80 | 131 | 5.0 | 8.0 | 0.00 | 0.05 | 0.04 | 99 | 1007.0 |
| 20260509003052 | 80 | 122 | 4.0 | 7.0 | 0.00 | 0.05 | 0.04 | 98 | 1006.9 |
| 20260509001551 | 80 | 146 | 4.0 | 8.0 | 0.00 | 0.05 | 0.04 | 97 | 1006.8 |
| 20260509000051 | 80 | 144 | 3.0 | 8.0 | 0.00 | 0.05 | 0.04 | 97 | 1006.7 |
| 20260508234553 | 80 | 117 | 4.0 | 6.0 | 0.00 | 0.05 | 0.04 | 97 | 1006.6 |
| 20260508233050 | 80 | 128 | 4.0 | 8.0 | 0.00 | 0.05 | 0.04 | 96 | 1006.4 |
| 20260508231549 | 80 | 139 | 5.0 | 7.0 | 0.00 | 0.05 | 0.04 | 97 | 1006.4 |
| 20260508230049 | 80 | 155 | 4.0 | 7.0 | 0.00 | 0.05 | 0.04 | 96 | 1006.4 |
| 20260508224547 | 81 | 156 | 6.0 | 8.0 | 0.00 | 0.05 | 0.04 | 97 | 1006.1 |
| 20260508223047 | 81 | 134 | 4.0 | 8.0 | 0.00 | 0.05 | 0.04 | 96 | 1006.0 |
| 20260508221546 | 81 | 144 | 5.0 | 9.0 | 0.00 | 0.05 | 0.04 | 96 | 1006.0 |
| 20260508220046 | 82 | 140 | 4.0 | 10.0 | 0.00 | 0.05 | 0.04 | 96 | 1005.9 |
| 20260508214545 | 81 | 150 | 5.0 | 9.0 | 0.00 | 0.05 | 0.04 | 96 | 1005.9 |
| 20260508213045 | 82 | 140 | 7.0 | 11.0 | 0.00 | 0.05 | 0.04 | 95 | 1005.9 |
| 20260508211544 | 81 | 178 | 6.0 | 10.0 | 0.00 | 0.05 | 0.04 | 96 | 1005.8 |
| 20260508210043 | 81 | 144 | 6.0 | 9.0 | 0.00 | 0.05 | 0.04 | 95 | 1005.9 |
| 20260508204542 | 82 | 158 | 4.0 | 10.0 | 0.00 | 0.05 | 0.04 | 95 | 1005.9 |
| 20260508203040 | 82 | 165 | 3.0 | 9.0 | 0.00 | 0.05 | 0.04 | 95 | 1006.1 |
| 20260508201539 | 82 | 122 | 7.0 | 11.0 | 0.00 | 0.05 | 0.04 | 95 | 1006.2 |
| 20260508200045 | 82 | 171 | 5.0 | 12.0 | 0.00 | 0.05 | 0.04 | 95 | 1006.2 |
| 20260508194537 | 82 | 146 | 7.0 | 11.0 | 0.00 | 0.05 | 0.04 | 95 | 1006.4 |
| 20260508193032 | 83 | 165 | 4.0 | 11.0 | 0.00 | 0.05 | 0.04 | 94 | 1006.8 |
| 20260508191532 | 83 | 132 | 6.0 | 11.0 | 0.00 | 0.05 | 0.04 | 93 | 1007.1 |
| 20260508190029 | 83 | 191 | 5.0 | 11.0 | 0.00 | 0.05 | 0.04 | 94 | 1007.3 |
| 20260508184528 | 82 | 129 | 7.0 | 10.0 | 0.00 | 0.05 | 0.04 | 95 | 1007.6 |
| 20260508183027 | 82 | 146 | 5.0 | 9.0 | 0.00 | 0.05 | 0.04 | 93 | 1007.9 |
| 20260508181531 | 81 | 141 | 6.0 | 10.0 | 0.00 | 0.05 | 0.04 | 97 | 1008.1 |
| 20260508180027 | 82 | 137 | 5.0 | 9.0 | 0.00 | 0.05 | 0.04 | 97 | 1008.3 |
| 20260508174523 | 81 | 128 | 7.0 | 9.0 | 0.00 | 0.05 | 0.04 | 96 | 1008.6 |
| 20260508173023 | 82 | 149 | 5.0 | 9.0 | 0.00 | 0.05 | 0.04 | 95 | 1008.7 |
| 20260508171523 | 82 | 146 | 5.0 | 9.0 | 0.00 | 0.05 | 0.04 | 95 | 1008.9 |
| 20260508170022 | 82 | 93 | 5.0 | 10.0 | 0.00 | 0.05 | 0.04 | 96 | 1009.2 |
| 20260508164521 | 81 | 169 | 5.0 | 11.0 | 0.00 | 0.05 | 0.04 | 97 | 1009.3 |
| 20260508163023 | 82 | 139 | 6.0 | 10.0 | 0.00 | 0.05 | 0.04 | 95 | 1009.3 |
| 20260508161518 | 82 | 136 | 5.0 | 12.0 | 0.00 | 0.05 | 0.04 | 96 | 1009.5 |
| 20260508160018 | 82 | 132 | 6.0 | 12.0 | 0.00 | 0.05 | 0.04 | 96 | 1009.6 |
| 20260508154538 | 81 | 132 | 8.0 | 13.0 | 0.00 | 0.05 | 0.04 | 98 | 1009.5 |
| 20260508153018 | 81 | 144 | 9.0 | 13.0 | 0.00 | 0.05 | 0.04 | 98 | 1009.5 |
| 20260508151515 | 80 | 150 | 8.0 | 12.0 | 0.00 | 0.05 | 0.04 | 97 | 1009.5 |
| 20260508150013 | 81 | 166 | 8.0 | 12.0 | 0.00 | 0.05 | 0.04 | 97 | 1009.4 |
| 20260508144511 | 81 | 127 | 6.0 | 11.0 | 0.00 | 0.05 | 0.04 | 97 | 1009.3 |
| 20260508143010 | 81 | 129 | 5.0 | 10.0 | 0.00 | 0.05 | 0.04 | 98 | 1009.4 |
| 20260508141509 | 80 | 128 | 5.0 | 10.0 | 0.00 | 0.05 | 0.04 | 98 | 1009.2 |
| 20260508140006 | 80 | 146 | 5.0 | 10.0 | 0.00 | 0.05 | 0.04 | 99 | 1009.2 |
| 20260508134504 | 79 | 108 | 0.0 | 4.0 | 0.00 | 0.05 | 0.04 | 100 | 1009.1 |
| 20260508133006 | 79 | 103 | 0.0 | 0.0 | 0.00 | 0.05 | 0.04 | 100 | 1009.0 |
| 20260508131502 | 80 | 84 | 0.0 | 4.0 | 0.00 | 0.05 | 0.04 | 100 | 1008.8 |
| 20260508124602 | 78 | 18 | 0.0 | 0.0 | 0.00 | 0.05 | 0.04 | 100 | 1008.4 |
| 20260508123057 | 77 | 36 | 0.0 | 0.0 | 0.00 | 0.05 | 0.04 | 100 | 1008.2 |
| 20260508121556 | 77 | 44 | 1.0 | 5.0 | 0.00 | 0.05 | 0.04 | 100 | 1008.0 |
| 20260508120055 | 77 | 19 | 2.0 | 6.0 | 0.02 | 0.05 | 0.04 | 100 | 1007.9 |
| 20260508114554 | 77 | 37 | 1.0 | 4.0 | 0.02 | 0.05 | 0.04 | 100 | 1007.7 |
| 20260508113054 | 77 | 44 | 0.0 | 4.0 | 0.02 | 0.05 | 0.04 | 100 | 1007.6 |
| 20260508111554 | 77 | 78 | 0.0 | 4.0 | 0.02 | 0.05 | 0.04 | 100 | 1007.5 |
| 20260508110051 | 77 | 91 | 0.0 | 2.0 | 0.00 | 0.03 | 0.02 | 100 | 1007.5 |
| 20260508104550 | 77 | 7 | 0.0 | 4.0 | 0.00 | 0.03 | 0.02 | 100 | 1007.2 |
| 20260508103055 | 77 | 49 | 3.0 | 4.0 | 0.00 | 0.03 | 0.02 | 100 | 1007.1 |
| 20260508101549 | 77 | 17 | 0.0 | 3.0 | 0.00 | 0.03 | 0.02 | 100 | 1007.0 |
| 20260508100104 | 77 | 84 | 0.0 | 3.0 | 0.01 | 0.03 | 0.02 | 100 | 1007.0 |
| 20260508094556 | 77 | 27 | 2.0 | 4.0 | 0.01 | 0.03 | 0.02 | 100 | 1007.0 |
| 20260508093047 | 77 | 360 | 1.0 | 3.0 | 0.02 | 0.03 | 0.02 | 100 | 1006.9 |
| 20260508091548 | 77 | 347 | 1.0 | 3.0 | 0.02 | 0.03 | 0.02 | 100 | 1006.9 |
| 20260508090108 | 77 | 3 | 1.0 | 3.0 | 0.02 | 0.02 | 0.02 | 100 | 1006.9 |
| 20260508084546 | 77 | 41 | 0.0 | 0.0 | 0.02 | 0.02 | 0.02 | 100 | 1007.0 |
| 20260508083040 | 77 | 105 | 0.0 | 0.0 | 0.01 | 0.02 | 0.01 | 100 | 1007.1 |
| 20260508081556 | 77 | 340 | 0.0 | 0.0 | 0.00 | 0.01 | 0.00 | 100 | 1007.3 |
| 20260508080040 | 77 | 304 | 0.0 | 0.0 | 0.00 | 0.01 | 0.00 | 100 | 1007.3 |
| 20260508074538 | 77 | 316 | 0.0 | 0.0 | 0.00 | 0.01 | 0.00 | 100 | 1007.5 |
| 20260508073039 | 77 | 316 | 0.0 | 0.0 | 0.00 | 0.01 | 0.00 | 100 | 1007.8 |
| 20260508071531 | 77 | 316 | 0.0 | 0.0 | 0.00 | 0.01 | 0.00 | 100 | 1008.0 |
| 20260508070030 | 78 | 316 | 0.0 | 0.0 | 0.00 | 0.01 | 0.00 | 100 | 1008.2 |
| 20260508064530 | 78 | 319 | 0.0 | 0.0 | 0.00 | 0.01 | 0.00 | 100 | 1008.4 |
| 20260508063027 | 78 | 318 | 0.0 | 0.0 | 0.00 | 0.01 | 0.00 | 100 | 1008.7 |
| 20260508061531 | 78 | 318 | 0.0 | 0.0 | 0.00 | 0.01 | 0.00 | 100 | 1009.0 |
| 20260508060022 | 78 | 318 | 0.0 | 0.0 | 0.00 | 0.01 | 0.00 | 100 | 1009.1 |
| 20260508054519 | 78 | 288 | 0.0 | 0.0 | 0.00 | 0.01 | 0.01 | 100 | 1009.2 |
| 20260508053021 | 78 | 288 | 0.0 | 0.0 | 0.01 | 0.01 | 0.01 | 100 | 1009.4 |
| 20260508051519 | 78 | 327 | 0.0 | 0.0 | 0.01 | 0.01 | 0.01 | 100 | 1009.7 |
| 20260508050034 | 78 | 317 | 0.0 | 0.0 | 0.01 | 0.01 | 0.01 | 100 | 1009.8 |
| 20260508044517 | 79 | 319 | 0.0 | 0.0 | 0.01 | 0.01 | 0.01 | 100 | 1009.9 |
| 20260508043018 | 79 | 305 | 0.0 | 0.0 | 0.00 | 0.00 | 0.00 | 100 | 1009.8 |
| 20260508041520 | 79 | 269 | 0.0 | 0.0 | 0.00 | 0.00 | 0.00 | 100 | 1009.8 |
| 20260508040016 | 79 | 269 | 0.0 | 0.0 | 0.00 | 0.00 | 0.00 | 99 | 1009.8 |